カタログに戻る

STARLINK-36475

運用中通信VLEO
NORAD 67350·PAYLOAD·🇺🇸 United States

打ち上げ Jan 9, 2026 から Cape Canaveral Space Force Station

Loading…

次のパス (今後24時間)

TLE

最新Source: CelesTrak SupGP

元期: Sep 14, 2026, 21:36 UTC

1 67350C 26003S   26257.90048611  .00039624  00000+0  14339-2 0  2575
2 67350  42.9993 238.2785 0001536 254.7268 111.5241 15.27588518    19

AllMySatでSTARLINK-36475をリアルタイム追跡

Download on the App Store